CZ-6A DEB, 54269

Orbit data source: Space-Track

CZ-6A DEB, 54269 is space debris in SSO originally from a launch on Fri, 11 Nov 2022 UTC launched from the Taiyaun Space Center, China (TSC). Debris objects in space refer to the collection of defunct objects orbiting the Earth. Examples of debris include non-operational satellites, rocket bodies, and fragments generated from explosions, collisions, or faulty payload assembly.

Loading next visibility...
Identifier
54269, 2022-151L
Orbit
SSO
Country
Flag of CNCN / PRC
Related business
Manufacturer
SAST
Mission
Spacecraft
Bus & Motor
Unknown
Mass
Unknown
Launch date (UTC)
2022-11-11 (4 years ago)
Launch vehicle
Unknown
Launch site
Taiyaun Space Center, China (TSC)
Object type
Payload
Rocket body
Debris
Shape & HBR
Unknown shape, 0.4 m
Radar Cross Section
Medium (>0.1 m² and <1 m²)

Expand to show TLE details & history
Last TLE update: 18 hours ago

TLE from 18 hours ago
0 CZ-6A DEB
1 54269U 22151L   26237.09815941  .00000249  00000-0  79145-4 0  9999
2 54269  98.6064 289.7339 0131969 113.3072 248.2069 14.43719876198737
Epoch: 2026-08-25T02:21Z
TLE epoch observation values (Epoch: 2026-08-25T02:21:20.973Z)
Latitude
-0.00005°
Longitude
-78.97387°
Altitude
785.16 km
Speed
7.442 km/s
True Right ascension
19h 18m 56s
True Declination
0° 00' 00"
Sunlit
Object was in full shadow at epoch
Visualization orbit readout
Latitude
Unknown
Longitude
Unknown
Altitude
Unknown
Speed
Unknown
Apparent Right ascension
Unknown
Apparent Declination
Unknown
Sunlit
N/A
Visualization observer readout
Local Sidereal Time
11:46:02
Azimuth
Unknown
Elevation
Unknown
Doppler factor
Unknown
Orbital elements
Apogee altitude
837.337 km
Perigee altitude
649.374 km
Semi-major axis
7,121.493 km
Eccentricity
0.0132
Inclination
98.6064°
RAAN
289.7339°
Arg. of periapsis
113.3072°
True anomaly
246.81141°
Mean anomaly
248.2069°
Eccentric anomaly
247.50829°
Mean motion
3.61149 °/min
Orbital period
99.68 mins
BSTAR
0.000079145
Loading maneuver chart data...
Computing Atmospheric mass density...
Loading historical data...
Loading historical data...
Loading historical data...
Loading historical data...
Loading historical data...
Loading historical data...
Loading historical data...

Documentation

Showing up to 5 results
|